Weather History for Antalya, Turkey

Change the Weather History Date:

Sunday, August 24, 2014

  Actual Average Record
Temperature  
Mean Temperature 92 °F -  
Max Temperature 106 °F 89 °F 106 °F (2014)
Min Temperature 79 °F 67 °F 68 °F (1996)
Cooling Degree Days 28    
Growing Degree Days 42 (Base 50)    
Moisture  
Dew Point 53 °F    
Average Humidity 30    
Maximum Humidity 66    
Minimum Humidity 6    
Precipitation  
Precipitation 0.00 in 0.01 in - ()
Sea Level Pressure  
Sea Level Pressure 29.69 in    
Wind  
Wind Speed 8 mph ()    
Max Wind Speed 18 mph    
Max Gust Speed -    
Visibility 6.0 miles    
Events      
Averages and records for this station are not official NWS values.
T = Trace of Precipitation, MM = Missing Value Source: Averaged Metar Reports

Daily Weather History Graph

Daily Weather History Graph

Search for Another Location

Airport:

Trip Planner

Search our weather history database for the weather conditions in past years. The results will help you decide how hot, cold, wet, or windy it might be!

Date:

Astronomy

Aug. 24, 2014 Rise Set
Actual Time 6:20 AM EEST 7:36 PM EEST
Civil Twilight 5:53 AM EEST 8:03 PM EEST
Nautical Twilight 5:21 AM EEST 8:35 PM EEST
Astronomical Twilight 4:47 AM EEST 9:09 PM EEST
Moon 5:13 AM EEST (8/24) 6:44 PM EEST (8/24)
Length of Visible Light 14h 09m
Length of Day
13h 15m
Waning Crescent, 1% of the Moon is Illuminated
Aug 24
Waning Crescent
Aug 25
New
Sep 2
First Quarter
Sep 9
Full
Sep 16
Last Quarter

Hourly Weather History & Observations

Time (EEST) Temp. Heat Index Dew Point Humidity Pressure Visibility Wind Dir Wind Speed Gust Speed Precip Events Conditions
12:20 AM 82.4 °F 85.4 °F 68.0 °F 62% 29.74 in - Variable 1.2 mph - N/A   Clear
12:50 AM 82.4 °F 84.6 °F 66.2 °F 58% 29.74 in - NW 3.5 mph - N/A   Clear
1:20 AM 80.6 °F 82.3 °F 64.4 °F 58% 29.74 in - Variable 2.3 mph - N/A   Clear
1:50 AM 84.2 °F 82.8 °F 53.6 °F 35% 29.74 in - NNW 5.8 mph - N/A   Clear
2:20 AM 84.2 °F - 50.0 °F 30% 29.71 in - NNW 8.1 mph - N/A   Clear
2:50 AM 84.2 °F - 48.2 °F 29% 29.71 in - NW 8.1 mph - N/A   Clear
3:00 AM 85 °F - 47 °F 17% 29.70 in 6 mi NW 8.1 mph - -  
3:20 AM 86.0 °F - 48.2 °F 27% 29.71 in - NW 10.4 mph - N/A   Clear
3:50 AM 86.0 °F - 48.2 °F 27% 29.71 in - NW 10.4 mph - N/A   Clear
4:20 AM 86.0 °F - 48.2 °F 27% 29.71 in - NW 11.5 mph - N/A   Clear
4:50 AM 86.0 °F - 48.2 °F 27% 29.71 in - NW 12.7 mph - N/A   Clear
5:20 AM 86.0 °F - 46.4 °F 25% 29.71 in - NW 12.7 mph - N/A   Clear
5:50 AM 86.0 °F - 48.2 °F 27% 29.71 in - NW 10.4 mph - N/A   Clear
6:00 AM 85 °F - 46 °F 16% 29.70 in 6 mi NW 10.4 mph - -  
6:20 AM 86.0 °F - 46.4 °F 25% 29.71 in - NW 12.7 mph - N/A   Clear
6:50 AM 86.0 °F - 46.4 °F 25% 29.71 in - NW 12.7 mph - N/A   Clear
7:20 AM 87.8 °F - 46.4 °F 24% 29.71 in - NW 12.7 mph - N/A   Clear
7:50 AM 91.4 °F - 46.4 °F 21% 29.71 in - NW 16.1 mph - N/A   Clear
8:20 AM 91.4 °F - 48.2 °F 23% 29.71 in - NW 15.0 mph - N/A   Clear
8:50 AM 95.0 °F - 46.4 °F 19% 29.71 in - NW 16.1 mph - N/A   Clear
9:00 AM 94 °F - 45 °F 11% 29.70 in 6 mi NW 16.1 mph - -  
9:20 AM 96.8 °F - 46.4 °F 18% 29.71 in - NNW 15.0 mph - N/A   Clear
9:50 AM 98.6 °F - 44.6 °F 16% 29.71 in - NNW 16.1 mph - N/A   Clear
10:20 AM 100.4 °F - 44.6 °F 15% 29.71 in - NNW 15.0 mph - N/A   Clear
10:50 AM 100.4 °F - 44.6 °F 15% 29.71 in - NW 12.7 mph - N/A   Clear
11:20 AM 100.4 °F - 44.6 °F 15% 29.71 in - North 10.4 mph - N/A   Clear
11:50 AM 102.2 °F - 42.8 °F 13% 29.71 in - North 8.1 mph - N/A   Clear
12:00 PM 102 °F - 40 °F 6% 29.68 in 6 mi North 8.1 mph - -  
12:20 PM 102.2 °F - 42.8 °F 13% 29.68 in - NW 4.6 mph - N/A   Clear
12:50 PM 104.0 °F - 44.6 °F 13% 29.68 in - NE 6.9 mph - N/A   Clear
1:20 PM 104.0 °F - 41.0 °F 12% 29.68 in - Variable 4.6 mph - N/A   Clear
1:50 PM 104.0 °F - 44.6 °F 13% 29.68 in - SSE 8.1 mph - N/A   Clear
2:20 PM 104.0 °F - 42.8 °F 12% 29.65 in - SSE 8.1 mph - N/A   Clear
2:50 PM 105.8 °F - 42.8 °F 12% 29.65 in - SSE 9.2 mph - N/A   Clear
3:00 PM 105 °F - 41 °F 6% 29.64 in 6 mi SSE 9.2 mph - -  
3:20 PM 104.0 °F - 44.6 °F 13% 29.65 in - SSE 9.2 mph - N/A   Clear
3:50 PM 102.2 °F 100.9 °F 55.4 °F 21% 29.65 in - South 11.5 mph - N/A   Clear
4:20 PM 100.4 °F - 50.0 °F 18% 29.65 in - South 18.4 mph - N/A   Clear
4:50 PM 98.6 °F 96.4 °F 53.6 °F 22% 29.65 in - South 17.3 mph - N/A   Clear
5:20 PM 98.6 °F 97.2 °F 55.4 °F 24% 29.65 in - South 17.3 mph - N/A   Clear
5:50 PM 96.8 °F 95.1 °F 55.4 °F 25% 29.65 in - South 15.0 mph - N/A   Clear
6:00 PM 97 °F - 53 °F 15% 29.62 in 6 mi South 15.0 mph - -  
6:20 PM 95.0 °F 95.2 °F 60.8 °F 32% 29.65 in - SSE 6.9 mph - N/A   Clear
6:50 PM 91.4 °F 95.4 °F 68.0 °F 46% 29.65 in - East 6.9 mph - N/A   Clear
7:20 PM 87.8 °F 93.8 °F 71.6 °F 58% 29.65 in - East 6.9 mph - N/A   Clear
7:50 PM 87.8 °F 93.8 °F 71.6 °F 58% 29.68 in - ENE 5.8 mph - N/A   Clear
8:20 PM 86.0 °F 91.8 °F 71.6 °F 62% 29.68 in - NE 9.2 mph - N/A   Clear
8:50 PM 86.0 °F 90.4 °F 69.8 °F 58% 29.68 in - NNE 4.6 mph - N/A   Clear
9:00 PM 85 °F - 70 °F 52% 29.68 in 6 mi NNE 4.6 mph - -  
9:20 PM 84.2 °F 88.4 °F 69.8 °F 62% 29.71 in - Variable 3.5 mph - N/A   Clear
9:50 PM 84.2 °F 89.6 °F 71.6 °F 66% 29.71 in - WNW 4.6 mph - N/A   Clear
10:20 PM 84.2 °F 88.4 °F 69.8 °F 62% 29.71 in - West 4.6 mph - N/A   Clear
10:50 PM 84.2 °F 87.3 °F 68.0 °F 58% 29.71 in - West 5.8 mph - N/A   Clear
11:20 PM 82.4 °F 84.6 °F 66.2 °F 58% 29.71 in - Variable 1.2 mph - N/A   Clear
11:50 PM 82.4 °F 83.9 °F 64.4 °F 54% 29.71 in - NW 3.5 mph - N/A   Clear